West Point, VA

7:35 AM EDT on March 23, 2017 (GMT -0400)
West Point

Weather History for KFYJ - February, 2013

Change the Weather History Date:

Tuesday, February 19, 2013

  Actual Average (KJGG) Record (KJGG)
Temperature  
Mean Temperature 44 °F -  
Max Temperature 53 °F 55 °F 78 °F (2017)
Min Temperature 35 °F 32 °F 12 °F (2015)
Degree Days  
Heating Degree Days 21    
Moisture  
Dew Point 38 °F    
Average Humidity 78    
Maximum Humidity 100    
Minimum Humidity 49    
Precipitation  
Precipitation 0.04 in - - ()
Sea Level Pressure  
Sea Level Pressure 30.01 in    
Wind  
Wind Speed 8 mph (SSW)    
Max Wind Speed 17 mph    
Max Gust Speed 25 mph    
Visibility 9 miles    
Events      
Averages and records for this station are not official NWS values.
T = Trace of Precipitation, MM = Missing Value Source: NWS Daily Summary

Daily Weather History Graph

Daily Weather History Graph

Search for Another Location

Airport or City:

Trip Planner

Search our weather history database for the weather conditions in past years. The results will help you decide how hot, cold, wet, or windy it might be!

Date:

Astronomy

Feb. 19, 2013 Rise Set
Actual Time 6:51 AM EST 5:50 PM EST
Civil Twilight 6:24 AM EST 6:17 PM EST
Nautical Twilight 5:54 AM EST 6:48 PM EST
Astronomical Twilight 5:23 AM EST 7:18 PM EST
Moon 12:24 PM EST (2/19) 2:17 AM EST (2/19)
Length of Visible Light 11h 52m
Length of Day
10h 59m
Waxing Gibbous, 67% of the Moon is Illuminated
Feb 19
Waxing Gibbous
Feb 25
Full
Mar 4
Last Quarter
Mar 11
New
Mar 19
First Quarter

Hourly Weather History & Observations

Time (EST) Temp. Windchill Dew Point Humidity Pressure Visibility Wind Dir Wind Speed Gust Speed Precip Events Conditions
12:15 AM 40.3 °F 34.9 °F 22.5 °F 49% 30.27 in 10.0 mi South 8.1 mph - N/A   Clear
12:35 AM 40.1 °F 35.3 °F 23.5 °F 52% 30.27 in 10.0 mi South 6.9 mph - N/A   Clear
12:55 AM 39.9 °F 35.8 °F 24.4 °F 54% 30.26 in 10.0 mi South 5.8 mph - N/A   Clear
1:15 AM 38.8 °F 33.2 °F 24.8 °F 57% 30.24 in 10.0 mi South 8.1 mph - N/A   Clear
1:35 AM 39.6 °F 34.7 °F 25.7 °F 58% 30.22 in 10.0 mi South 6.9 mph - N/A   Clear
1:55 AM 40.1 °F 34.1 °F 26.1 °F 57% 30.22 in 10.0 mi South 9.2 mph - N/A   Clear
2:15 AM 40.1 °F 35.3 °F 26.6 °F 59% 30.22 in 10.0 mi South 6.9 mph - N/A   Clear
2:35 AM 40.1 °F 36.1 °F 27.5 °F 61% 30.22 in 10.0 mi South 5.8 mph - N/A   Clear
2:55 AM 39.7 °F 36.5 °F 27.9 °F 63% 30.22 in 10.0 mi SSW 4.6 mph - N/A   Clear
3:15 AM 39.2 °F 35.0 °F 28.2 °F 65% 30.21 in 10.0 mi SSW 5.8 mph - N/A   Clear
3:35 AM 38.5 °F 35.0 °F 28.0 °F 66% 30.20 in 10.0 mi South 4.6 mph - N/A   Clear
3:55 AM 37.9 °F 34.4 °F 27.9 °F 67% 30.19 in 10.0 mi SSE 4.6 mph - N/A   Clear
4:15 AM 37.8 °F 35.3 °F 28.0 °F 68% 30.19 in 10.0 mi SSE 3.5 mph - N/A   Clear
4:35 AM 37.0 °F 33.3 °F 28.2 °F 70% 30.18 in 10.0 mi SSE 4.6 mph - N/A   Clear
4:55 AM 35.8 °F - 27.9 °F 73% 30.16 in 10.0 mi Calm Calm - N/A   Clear
5:15 AM 36.1 °F 32.3 °F 28.0 °F 72% 30.15 in 10.0 mi SSE 4.6 mph - N/A   Clear
5:35 AM 37.4 °F 33.8 °F 28.2 °F 69% 30.15 in 10.0 mi South 4.6 mph - N/A   Clear
5:55 AM 36.7 °F 32.0 °F 28.2 °F 71% 30.15 in 10.0 mi South 5.8 mph - N/A   Clear
6:15 AM 37.0 °F 33.3 °F 28.9 °F 73% 30.14 in 10.0 mi SSE 4.6 mph - N/A   Scattered Clouds
6:35 AM 38.5 °F 34.1 °F 30.0 °F 72% 30.14 in 10.0 mi South 5.8 mph - N/A   Scattered Clouds
6:55 AM 39.7 °F 34.9 °F 30.6 °F 70% 30.13 in 10.0 mi South 6.9 mph - N/A   Scattered Clouds
7:35 AM 42.1 °F 36.6 °F 32.0 °F 67% 30.13 in 10.0 mi SSW 9.2 mph - N/A   Clear
7:55 AM 41.9 °F 36.9 °F 32.0 °F 68% 30.12 in 10.0 mi South 8.1 mph - N/A   Clear
8:15 AM 42.8 °F 37.5 °F 33.1 °F 69% 30.11 in 10.0 mi South 9.2 mph - N/A   Clear
8:35 AM 43.7 °F 39.1 °F 34.2 °F 69% 30.10 in 10.0 mi South 8.1 mph - N/A   Scattered Clouds
8:55 AM 44.1 °F 39.5 °F 35.2 °F 71% 30.10 in 10.0 mi South 8.1 mph - N/A   Overcast
9:15 AM 45.7 °F 41.0 °F 36.5 °F 70% 30.09 in 10.0 mi South 9.2 mph - N/A   Overcast
9:35 AM 46.6 °F - 37.4 °F 70% 30.08 in 10.0 mi South 9.2 mph - N/A   Overcast
9:55 AM 46.4 °F 41.9 °F 37.4 °F 71% 30.07 in 10.0 mi SSW 9.2 mph - N/A   Overcast
10:15 AM 46.8 °F - 37.8 °F 71% 30.06 in 10.0 mi South 10.4 mph - N/A   Overcast
10:35 AM 47.5 °F - 38.5 °F 71% 30.06 in 10.0 mi South 8.1 mph - N/A   Overcast
10:55 AM 49.1 °F - 39.4 °F 69% 30.05 in 10.0 mi South 8.1 mph - N/A   Overcast
11:15 AM 49.1 °F - 39.6 °F 70% 30.03 in 10.0 mi South 8.1 mph - N/A   Overcast
11:35 AM 50.2 °F - 40.1 °F 68% 30.01 in 10.0 mi South 8.1 mph - N/A   Overcast
11:55 AM 51.4 °F - 41.0 °F 68% 30.00 in 10.0 mi SW 9.2 mph - N/A   Overcast
12:15 PM 50.2 °F - 42.1 °F 74% 29.98 in 10.0 mi SW 6.9 mph - N/A   Overcast
12:35 PM 51.1 °F - 43.2 °F 74% 29.96 in 10.0 mi SW 6.9 mph - N/A   Mostly Cloudy
12:55 PM 51.4 °F - 43.0 °F 73% 29.95 in 10.0 mi SSW 8.1 mph - N/A   Overcast
1:35 PM 50.0 °F - 46.0 °F 86% 29.91 in 7.0 mi SSW 9.2 mph - N/A   Overcast
1:55 PM 50.0 °F - 47.3 °F 90% 29.90 in 10.0 mi SSW 10.4 mph - 0.01 in   Overcast
2:15 PM 51.3 °F - 48.4 °F 90% 29.87 in 10.0 mi South 13.8 mph 20.7 mph N/A   Overcast
2:35 PM 51.3 °F - 48.2 °F 89% 29.86 in 10.0 mi South 11.5 mph 16.1 mph N/A   Overcast
2:55 PM 52.0 °F - 48.6 °F 88% 29.84 in 10.0 mi South 10.4 mph 18.4 mph N/A   Overcast
3:15 PM 52.9 °F - 49.1 °F 87% 29.83 in 10.0 mi SSW 15.0 mph 25.3 mph N/A   Overcast
3:35 PM 53.4 °F - 49.1 °F 85% 29.82 in 10.0 mi SSW 12.7 mph 18.4 mph N/A   Overcast
3:55 PM 52.3 °F - 49.6 °F 91% 29.81 in 2.0 mi SSW 11.5 mph - N/A   Overcast
4:15 PM 51.4 °F - 50.5 °F 97% 29.81 in 4.0 mi SSW 8.1 mph - N/A   Overcast
4:35 PM 51.3 °F - 51.1 °F 99% 29.81 in 1.8 mi SW 6.9 mph - 0.01 in   Overcast
4:55 PM 50.9 °F - 50.9 °F 100% 29.81 in 1.2 mi WSW 9.2 mph - 0.02 in   Overcast
5:15 PM 50.9 °F - 50.9 °F 100% 29.81 in 2.5 mi WSW 13.8 mph 17.3 mph 0.01 in   Overcast
5:35 PM 50.5 °F - 50.5 °F 100% 29.81 in 7.0 mi WSW 12.7 mph 23.0 mph 0.01 in   Overcast
5:55 PM 50.5 °F - 50.4 °F 99% 29.81 in 10.0 mi WSW 17.3 mph - 0.01 in   Overcast
6:15 PM 50.5 °F - 50.0 °F 98% 29.81 in 10.0 mi SW 10.4 mph 19.6 mph N/A   Overcast
6:35 PM 50.5 °F - 49.3 °F 95% 29.82 in 10.0 mi SW 12.7 mph 19.6 mph N/A   Overcast
7:35 PM 48.6 °F - 46.9 °F 94% 29.85 in 10.0 mi West 10.4 mph - N/A   Scattered Clouds
7:55 PM 49.1 °F - 47.3 °F 93% 29.86 in 10.0 mi West 10.4 mph 16.1 mph N/A   Mostly Cloudy
8:15 PM 48.2 °F - 45.1 °F 89% 29.86 in 10.0 mi West 11.5 mph - N/A   Scattered Clouds
8:55 PM 45.5 °F 42.5 °F 43.3 °F 92% 29.86 in 10.0 mi WSW 5.8 mph - N/A   Clear
9:15 PM 44.6 °F 41.4 °F 43.0 °F 94% 29.86 in 10.0 mi West 5.8 mph - N/A   Mostly Cloudy
9:35 PM 44.4 °F 41.2 °F 42.6 °F 93% 29.87 in 10.0 mi West 5.8 mph - N/A   Mostly Cloudy
9:55 PM 43.2 °F 39.0 °F 41.9 °F 95% 29.87 in 10.0 mi West 6.9 mph - N/A   Scattered Clouds
10:15 PM 43.2 °F 39.7 °F 41.9 °F 95% 29.88 in 10.0 mi West 5.8 mph - N/A   Clear
10:35 PM 43.2 °F 39.7 °F 41.7 °F 95% 29.88 in 10.0 mi West 5.8 mph - N/A   Clear
10:55 PM 43.2 °F 40.5 °F 41.7 °F 95% 29.88 in 10.0 mi WNW 4.6 mph - N/A   Clear
11:15 PM 42.1 °F 38.4 °F 40.8 °F 95% 29.88 in 10.0 mi West 5.8 mph - N/A   Clear
11:35 PM 41.9 °F 37.5 °F 41.0 °F 97% 29.88 in 10.0 mi West 6.9 mph - N/A   Clear
11:55 PM 41.4 °F 37.6 °F 40.3 °F 96% 29.88 in 10.0 mi West 5.8 mph - N/A   Clear